Weather History for Alamosa, CO

Change the Weather History Date:

Monday, May 27, 2013

  Actual Average Record
Temperature  
Mean Temperature 51 °F 54 °F  
Max Temperature 74 °F 73 °F 84 °F (1951)
Min Temperature 28 °F 36 °F 25 °F (1950)
Degree Days  
Heating Degree Days 14 11  
Month to date heating degree days 437 387  
Since 1 July heating degree days 8889 8387  
Cooling Degree Days 0 0  
Month to date cooling degree days 0 0  
Year to date cooling degree days 0 0  
Moisture  
Dew Point 14 °F    
Average Humidity 36    
Maximum Humidity 63    
Minimum Humidity 8    
Precipitation  
Precipitation 0.00 in 0.02 in 0.68 in (1970)
Month to date precipitation 0.18 0.51  
Year to date precipitation 1.06 2.15  
Snow  
Snow 0.00 in 0.00 in T in (1992)
Month to date snowfall 0.0 0.9  
Since 1 July snowfall 21.1 27.6  
Snow Depth 0.00 in    
Sea Level Pressure  
Sea Level Pressure 29.81 in    
Wind  
Wind Speed 9 mph (SW)    
Max Wind Speed 25 mph    
Max Gust Speed 31 mph    
Visibility 10 miles    
Events      
T = Trace of Precipitation, MM = Missing Value Source: NWS Daily Summary

Daily Weather History Graph

Daily Weather History Graph

Search for Another Location

Airport:

Trip Planner

Search our weather history database for the weather conditions in past years. The results will help you decide how hot, cold, wet, or windy it might be!

Date:

Astronomy

May. 27, 2013 Rise Set
Actual Time 5:46 AM MDT 8:15 PM MDT
Civil Twilight 5:15 AM MDT 8:45 PM MDT
Nautical Twilight 4:38 AM MDT 9:23 PM MDT
Astronomical Twilight 3:57 AM MDT 10:04 PM MDT
Moon 10:58 PM MDT (5/27) 8:25 AM MDT (5/27)
Length of Visible Light 15h 29m
Length of Day
14h 29m
Waning Gibbous, 90% of the Moon is Illuminated
May 27
Waning Gibbous
May 31
Last Quarter
Jun 8
New
Jun 16
First Quarter
Jun 23
Full

Hourly Weather History & Observations

Time (MDT) Temp. Windchill Dew Point Humidity Pressure Visibility Wind Dir Wind Speed Gust Speed Precip Events Conditions
12:52 AM 43.0 °F 37.2 °F 14.0 °F 31% 29.87 in 10.0 mi SW 10.4 mph - N/A   Clear
1:52 AM 42.1 °F 36.6 °F 16.0 °F 35% 29.85 in 10.0 mi SW 9.2 mph - N/A   Clear
2:52 AM 37.9 °F 34.4 °F 17.1 °F 43% 29.85 in 10.0 mi Variable 4.6 mph - N/A   Clear
3:52 AM 32.0 °F 26.4 °F 18.0 °F 56% 29.88 in 10.0 mi SW 5.8 mph - N/A   Clear
4:52 AM 28.9 °F 23.9 °F 17.1 °F 61% 29.89 in 10.0 mi East 4.6 mph - N/A   Clear
5:52 AM 28.0 °F 22.8 °F 17.1 °F 63% 29.91 in 10.0 mi ESE 4.6 mph - N/A   Clear
6:52 AM 42.1 °F 37.1 °F 17.1 °F 37% 29.87 in 10.0 mi South 8.1 mph - N/A   Clear
7:52 AM 54.0 °F - 15.1 °F 22% 29.85 in 10.0 mi SW 6.9 mph - N/A   Clear
8:52 AM 60.1 °F - 18.0 °F 20% 29.84 in 10.0 mi WSW 3.5 mph - N/A   Clear
9:52 AM 66.0 °F - 14.0 °F 13% 29.82 in 10.0 mi NW 8.1 mph - N/A   Clear
10:52 AM 68.0 °F - 14.0 °F 12% 29.83 in 10.0 mi Calm Calm - N/A   Clear
11:52 AM 68.0 °F - 12.0 °F 11% 29.81 in 10.0 mi Calm Calm - N/A   Clear
12:52 PM 70.0 °F - 12.0 °F 11% 29.80 in 10.0 mi SW 9.2 mph - N/A   Clear
1:52 PM 72.0 °F - 7.0 °F 8% 29.78 in 10.0 mi SW 17.3 mph 21.9 mph N/A   Clear
2:52 PM 72.0 °F - 10.0 °F 9% 29.77 in 10.0 mi SW 18.4 mph 28.8 mph N/A   Clear
3:52 PM 71.1 °F - 10.0 °F 9% 29.78 in 10.0 mi SW 19.6 mph 28.8 mph N/A   Clear
4:52 PM 70.0 °F - 9.0 °F 9% 29.78 in 10.0 mi SW 18.4 mph 27.6 mph N/A   Clear
5:52 PM 68.0 °F - 10.9 °F 11% 29.79 in 10.0 mi SW 21.9 mph 27.6 mph N/A   Clear
6:52 PM 66.0 °F - 12.0 °F 12% 29.75 in 10.0 mi WSW 17.3 mph 25.3 mph N/A   Clear
7:52 PM 63.0 °F - 14.0 °F 15% 29.72 in 10.0 mi SW 11.5 mph - N/A   Clear
8:52 PM 53.1 °F - 18.0 °F 25% 29.75 in 10.0 mi WSW 8.1 mph - N/A   Clear
9:52 PM 51.1 °F - 16.0 °F 25% 29.76 in 10.0 mi WSW 9.2 mph - N/A   Clear
10:52 PM 48.9 °F - 16.0 °F 27% 29.75 in 10.0 mi WSW 10.4 mph - N/A   Clear
11:52 PM 44.1 °F 40.8 °F 18.0 °F 35% 29.78 in 10.0 mi SW 5.8 mph - N/A   Clear